TimeHST,TemperatureF,Dew PointF,Humidity,Sea Level PressureIn,VisibilityMPH,Wind Direction,Wind SpeedMPH,Gust SpeedMPH,PrecipitationIn,Events,Conditions,WindDirDegrees,DateUTC
12:54 AM,78.1,68.0,71,30.01,10.0,ENE,15.0,23.0,N/A,,Clear,60,2014-08-04 10:54:00
1:54 AM,77.0,69.1,76,30.00,10.0,NE,17.3,23.0,N/A,,Clear,50,2014-08-04 11:54:00
2:54 AM,77.0,70.0,79,29.98,10.0,NE,16.1,-,N/A,,Clear,40,2014-08-04 12:54:00
3:54 AM,77.0,70.0,79,29.98,10.0,NE,16.1,24.2,N/A,,Partly Cloudy,50,2014-08-04 13:54:00
4:54 AM,77.0,70.0,79,29.99,10.0,NE,12.7,23.0,N/A,,Clear,50,2014-08-04 14:54:00
5:54 AM,77.0,69.1,76,30.00,10.0,ENE,15.0,20.7,N/A,,Partly Cloudy,60,2014-08-04 15:54:00
6:54 AM,79.0,66.9,66,30.02,10.0,NE,13.8,-,N/A,,Scattered Clouds,50,2014-08-04 16:54:00
7:54 AM,82.9,64.9,54,30.03,10.0,NE,13.8,21.9,N/A,,Partly Cloudy,50,2014-08-04 17:54:00
8:54 AM,86.0,70.0,59,30.02,10.0,NE,23.0,-,N/A,,Partly Cloudy,40,2014-08-04 18:54:00
9:54 AM,84.0,66.9,56,30.02,10.0,ENE,25.3,31.1,N/A,,Scattered Clouds,60,2014-08-04 19:54:00
10:54 AM,88.0,64.9,46,30.01,10.0,ENE,23.0,32.2,N/A,,Scattered Clouds,70,2014-08-04 20:54:00
11:54 AM,90.0,64.0,42,30.00,10.0,ENE,21.9,29.9,N/A,,Scattered Clouds,70,2014-08-04 21:54:00
12:54 PM,90.0,64.9,43,29.99,10.0,East,23.0,34.5,N/A,,Scattered Clouds,80,2014-08-04 22:54:00
1:54 PM,90.0,66.9,46,29.96,10.0,ENE,26.5,33.4,N/A,,Scattered Clouds,70,2014-08-04 23:54:00
2:54 PM,89.1,64.0,43,29.94,10.0,ENE,21.9,32.2,N/A,,Scattered Clouds,70,2014-08-05 00:54:00
3:54 PM,88.0,66.0,48,29.93,10.0,East,24.2,34.5,N/A,,Scattered Clouds,80,2014-08-05 01:54:00
4:54 PM,86.0,66.9,53,29.93,10.0,ENE,20.7,34.5,N/A,,Scattered Clouds,70,2014-08-05 02:54:00
5:54 PM,82.9,66.9,58,29.95,10.0,ENE,20.7,32.2,N/A,,Scattered Clouds,70,2014-08-05 03:54:00
6:54 PM,80.1,66.9,64,29.97,10.0,ENE,18.4,27.6,N/A,,Scattered Clouds,60,2014-08-05 04:54:00
7:54 PM,79.0,68.0,69,30.00,10.0,ENE,19.6,27.6,N/A,,Partly Cloudy,60,2014-08-05 05:54:00
8:54 PM,78.1,66.9,68,30.01,10.0,ENE,17.3,27.6,N/A,,Partly Cloudy,60,2014-08-05 06:54:00
9:54 PM,78.1,66.0,66,30.03,10.0,ENE,16.1,24.2,N/A,,Partly Cloudy,60,2014-08-05 07:54:00
10:54 PM,78.1,66.0,66,30.04,10.0,NE,19.6,24.2,N/A,,Partly Cloudy,50,2014-08-05 08:54:00
11:54 PM,77.0,68.0,74,30.05,10.0,ENE,13.8,23.0,N/A,,Partly Cloudy,70,2014-08-05 09:54:00